Location: Camp Crooked Creek
(37.9149°N, 85.6607°W)
Time: 22:16:42
(UTC-04:00)

Amateur Radio Satellites - All Passes

Search period start: 01 August 2015 21:46
Search period end: 02 August 2015 21:46
Location: Camp Crooked Creek, 37.9149°N, 85.6607°W

Satellite Date Start Highest point End Downlink Frequencies (MHz)
Time Altitude Azimuth
STRAND 1 01 Aug 21:48:46 21:53:04 28° 292° (WNW) 21:57:17 437.568
HO-68 01 Aug 21:52:03 21:59:08 66° 258° (WSW) 22:06:16 435.675
CUBEBUG 2 01 Aug 21:52:47 21:56:25 30° 71° (ENE) 22:00:11 437.445
PRISM 01 Aug 21:55:54 21:58:54 19° 291° (WNW) 22:01:47 437.425
AAUSAT CUBESAT 2 01 Aug 21:57:56 22:02:08 83° 77° (ENE) 22:06:22 437.432
VERMONT LUNAR 01 Aug 22:02:05 22:05:13 54° 6° (N) 22:08:20 437.305
ISS 01 Aug 22:07:28 22:10:40 56° 323° (NW) 22:13:53 145.825
DX 1 01 Aug 22:17:56 22:18:20 10° 64° (ENE) 22:18:59 434.975-435.025
PHONESAT 2.4 01 Aug 22:25:17 22:28:47 63° 350° (N) 22:32:16 2401.200-2431.200
Cosmos 2491 01 Aug 22:30:38 22:32:52 11° 57° (ENE) 22:35:51 435.465 / 435.565
ZACube-1 01 Aug 22:46:14 22:50:25 76° 77° (ENE) 22:54:42 437.345
M-CUBED/EXP-1 PRIME 01 Aug 22:46:44 22:50:51 29° 99° (E) 22:54:54 437.505
COMPASS 1 01 Aug 22:54:01 22:57:04 19° 268° (W) 22:59:59 437.405
CINEMA 3 01 Aug 23:04:15 23:07:03 17° 269° (W) 23:09:43 145.822/145.860
50 SAT 01 Aug 23:04:56 23:07:48 21° 70° (ENE) 23:10:48 437.505
TIGRISAT 01 Aug 23:06:31 23:08:30 13° 89° (E) 23:10:46 435.000
FUNcube-1 01 Aug 23:07:42 23:11:50 61° 260° (W) 23:16:04 145.935
RS-15 01 Aug 23:07:55 23:18:49 74° 304° (NW) 23:30:07 29.354- 29.394
ANTELSAT 01 Aug 23:08:16 23:10:40 14° 90° (E) 23:13:18 437.575/2403.000
UWE-3 01 Aug 23:12:01 23:15:56 39° 263° (W) 23:19:57 435.000/436.395/437.385
DELFI C3 01 Aug 23:14:57 23:18:48 40° 262° (W) 23:22:39 145.870
AUBIESAT-1 01 Aug 23:15:07 23:19:43 49° 103° (ESE) 23:24:10 437.475
Oscar 11 01 Aug 23:20:03 23:23:43 26° 265° (W) 23:27:21 145.826/435.025
UKube-1 01 Aug 23:20:43 23:24:51 47° 74° (ENE) 23:29:02 .
HUMSAT D 01 Aug 23:27:22 23:31:30 89° 254° (WSW) 23:35:44 437.325/437.525
AISAT 01 Aug 23:28:21 23:32:24 37° 72° (ENE) 23:36:29 437.250
CUBEBUG 2 01 Aug 23:30:07 23:33:12 19° 268° (W) 23:36:14 437.445
BEESAT 2 01 Aug 23:35:07 23:37:57 19° 112° (ESE) 23:40:56 435.950
VERMONT LUNAR 01 Aug 23:38:52 23:41:59 55° 203° (SSW) 23:45:04 437.305
CUBEBUG 1 01 Aug 23:40:42 23:44:22 28° 71° (ENE) 23:48:05 437.445
ISS 01 Aug 23:46:15 23:47:41 12° 342° (NNW) 23:49:06 145.825
POLYITAN 1 01 Aug 23:47:13 23:48:59 13° 90° (E) 23:51:00 437.675
DX 1 01 Aug 23:49:44 23:54:04 70° 258° (WSW) 23:58:24 434.975-435.025
AIST 1 01 Aug 23:50:22 23:54:22 39° 78° (ENE) 23:58:22
UNISAT 6 01 Aug 23:58:03 00:02:37 50° 99° (E) 00:07:11 437.425
POPSAT HIP 1 02 Aug 00:02:57 00:05:57 19° 93° (E) 00:09:05 437.405
PHONESAT 2.4 02 Aug 00:03:29 00:06:58 59° 7° (N) 00:10:26 2401.200-2431.200
BUGSAT 1 02 Aug 00:04:54 00:05:51 11° 90° (E) 00:07:04 437.445
VELOX 1 02 Aug 00:06:45 00:11:09 82° 257° (WSW) 00:15:35 145.980
QB50P2 02 Aug 00:10:28 00:13:55 24° 95° (E) 00:17:26 145.880/145.840
BEESAT 3 02 Aug 00:12:35 00:16:36 68° 119° (ESE) 00:20:41 437.485
SPROUT 02 Aug 00:14:36 00:17:32 19° 69° (ENE) 00:20:36 437.525
ESTCUBE 1 02 Aug 00:21:11 00:25:44 83° 257° (WSW) 00:30:17 437.505/2401.250
M-CUBED/EXP-1 PRIME 02 Aug 00:21:21 00:25:33 30° 295° (WNW) 00:29:34 437.505
Cosmos 2491 02 Aug 00:23:12 00:31:52 68° 80° (E) 00:40:32 435.465 / 435.565
TISAT 1 02 Aug 00:24:14 00:26:26 15° 67° (ENE) 00:28:49 437.305
DUCHIFAT 1 02 Aug 00:33:43 00:37:45 41° 98° (E) 00:41:48 145.980
QB50P1 02 Aug 00:37:31 00:41:38 49° 99° (E) 00:45:47 145.935-145.965
NANOSAT C BR1 02 Aug 00:38:25 00:42:33 49° 99° (E) 00:46:42 145.865
50 SAT 02 Aug 00:38:59 00:42:15 25° 265° (W) 00:45:30 437.505
TIGRISAT 02 Aug 00:41:03 00:45:40 58° 285° (WNW) 00:50:17 435.000
YUBILEINY 02 Aug 00:42:18 00:50:09 42° 88° (E) 00:58:13 435.215
ANTELSAT 02 Aug 00:43:13 00:47:48 53° 286° (WNW) 00:52:23 437.575/2403.000
AUBIESAT-1 02 Aug 00:50:46 00:54:02 18° 298° (WNW) 00:57:05 437.475
UKube-1 02 Aug 00:59:06 01:01:18 13° 269° (W) 01:03:17 .
AISAT 02 Aug 01:06:07 01:09:09 17° 268° (W) 01:12:01 437.250
AIST 2 02 Aug 01:11:43 01:15:47 48° 116° (ESE) 01:19:55 435.215
BEESAT 2 02 Aug 01:11:59 01:15:47 35° 307° (NW) 01:19:35 435.950
CUBEBUG 1 02 Aug 01:17:11 01:20:43 23° 266° (W) 01:24:09 437.445
VERMONT LUNAR 02 Aug 01:17:32 01:18:16 11° 216° (SW) 01:18:54 437.305
POLYITAN 1 02 Aug 01:21:04 01:25:13 49° 286° (WNW) 01:29:21 437.675
BEESAT 02 Aug 01:22:42 01:24:29 12° 64° (ENE) 01:26:31 436.000
RS-15 02 Aug 01:25:03 01:33:45 24° 332° (NNW) 01:42:26 29.354- 29.394
AIST 1 02 Aug 01:29:20 01:31:42 14° 273° (W) 01:33:52
UNISAT 6 02 Aug 01:36:02 01:39:01 16° 293° (WNW) 01:41:49 437.425
BUGSAT 1 02 Aug 01:37:43 01:41:41 51° 286° (WNW) 01:45:39 437.445
POPSAT HIP 1 02 Aug 01:38:05 01:41:55 32° 288° (WNW) 01:45:42 437.405
SWISSCUBE 02 Aug 01:41:28 01:44:59 21° 68° (ENE) 01:48:37 437.505
PHONESAT 2.4 02 Aug 01:41:32 01:44:57 51° 204° (SSW) 01:48:20 2401.200-2431.200
QB50P2 02 Aug 01:46:11 01:49:45 26° 290° (WNW) 01:53:16 145.880/145.840
SPROUT 02 Aug 01:49:31 01:53:24 33° 263° (W) 01:57:17 437.525
BEESAT 3 02 Aug 01:53:06 01:55:02 13° 317° (NW) 01:56:51 437.485
TISAT 1 02 Aug 01:57:53 02:01:52 43° 261° (W) 02:05:52 437.305
Oscar 19 02 Aug 02:01:52 02:04:46 15° 90° (E) 02:07:54 437.125/150
ITUPSAT 1 02 Aug 02:02:07 02:06:17 31° 70° (ENE) 02:10:31 437.325
DUCHIFAT 1 02 Aug 02:10:38 02:13:14 16° 293° (WNW) 02:15:41 145.980
QB50P1 02 Aug 02:14:54 02:17:08 14° 293° (WNW) 02:19:10 145.935-145.965
NANOSAT C BR1 02 Aug 02:15:49 02:18:00 14° 293° (WNW) 02:20:01 145.865
Cosmos 2491 02 Aug 02:21:29 02:28:05 23° 277° (W) 02:34:16 435.465 / 435.565
YUBILEINY 02 Aug 02:38:57 02:47:02 40° 287° (WNW) 02:55:04 435.215
O/OREOS (USA 219) 02 Aug 02:40:23 02:44:50 67° 293° (WNW) 02:49:19 437.305
AIST 2 02 Aug 02:51:41 02:54:38 18° 314° (NW) 02:57:30 435.215
BEESAT 02 Aug 02:57:01 03:01:48 70° 259° (W) 03:06:36 436.000
ISS 02 Aug 03:01:03 03:02:57 15° 22° (NNE) 03:04:54 145.825
Gurwin Techsat 1B 02 Aug 03:07:09 03:10:54 20° 92° (E) 03:14:49 435.225
STARS 02 Aug 03:08:12 03:10:22 14° 66° (ENE) 03:12:44 437.465
SWISSCUBE 02 Aug 03:18:08 03:22:37 38° 262° (W) 03:27:05 437.505
PHONESAT 2.4 02 Aug 03:21:43 03:22:26 10° 217° (SW) 03:23:02 2401.200-2431.200
JAS-2 02 Aug 03:23:20 03:27:40 16° 85° (E) 03:32:26 435.910
ITAMSAT 1 02 Aug 03:23:51 03:27:59 25° 94° (E) 03:32:14 435.822/435.867
KKS-1 02 Aug 03:35:00 03:39:13 46° 73° (ENE) 03:43:29 437.445
Oscar 19 02 Aug 03:39:28 03:44:33 57° 287° (WNW) 03:49:37 437.125/150
ITUPSAT 1 02 Aug 03:40:08 03:44:10 26° 265° (W) 03:48:09 437.325
Cosmos 2504 02 Aug 03:43:28 03:50:31 73° 94° (E) 03:58:06 435.465 / 435.565
RS-15 02 Aug 03:45:22 03:52:02 17° 7° (N) 03:59:01 29.354- 29.394
JUGNU 02 Aug 04:20:12 04:21:47 11° 172° (S) 04:23:26 437.505
MOZHAYETS 4 02 Aug 04:32:57 04:36:33 23° 69° (ENE) 04:40:16
HORYU 2 02 Aug 04:35:31 04:38:04 15° 91° (E) 04:40:49 437.375
ISS 02 Aug 04:36:33 04:39:49 84° 39° (NE) 04:43:05 145.825
STARS 02 Aug 04:42:11 04:46:25 50° 260° (W) 04:50:41 437.465
DANDE 02 Aug 04:45:12 04:47:03 15° 97° (E) 04:48:50 436.750
Gurwin Techsat 1B 02 Aug 04:46:04 04:51:10 46° 288° (WNW) 04:56:12 435.225
CUSAT 1 02 Aug 04:57:29 05:00:16 39° 98° (E) 05:02:47 437.405
ITAMSAT 1 02 Aug 05:02:52 05:07:36 36° 290° (WNW) 05:12:15 435.822/435.867
AO-7 02 Aug 05:05:22 05:13:02 41° 98° (E) 05:20:46 29.400- 29.500
JAS-2 02 Aug 05:05:50 05:13:46 89° 103° (ESE) 05:21:29 435.910
KKS-1 02 Aug 05:13:42 05:16:10 14° 269° (W) 05:18:26 437.445
GONETS M04 02 Aug 05:27:48 05:32:15 16° 80° (E) 05:37:16
Cosmos 2504 02 Aug 05:38:46 05:43:45 18° 296° (WNW) 05:48:34 435.465 / 435.565
RS-15 02 Aug 05:59:03 06:09:26 36° 40° (NE) 06:20:25 29.354- 29.394
JUGNU 02 Aug 06:07:26 06:09:57 13° 182° (S) 06:12:27 437.505
MOZHAYETS 4 02 Aug 06:09:28 06:13:38 32° 264° (W) 06:17:47
HORYU 2 02 Aug 06:10:40 06:15:00 45° 287° (WNW) 06:19:15 437.375
SRMSAT 02 Aug 06:13:49 06:15:27 11° 172° (S) 06:17:08 437.500
DANDE 02 Aug 06:28:25 06:30:05 13° 284° (WNW) 06:31:31 436.750
CUBESAT XI-V 02 Aug 06:29:12 06:33:20 33° 71° (ENE) 06:37:32 437.345
CUTE-I 02 Aug 06:40:16 06:41:24 11° 87° (E) 06:42:56 437.470
JAS-2 02 Aug 06:52:35 06:57:54 19° 300° (WNW) 07:02:51 435.910
AO-7 02 Aug 06:58:08 07:05:53 43° 296° (WNW) 07:13:30 29.400- 29.500
PRISM 02 Aug 07:08:55 07:11:51 19° 68° (ENE) 07:14:52 437.425
GONETS M04 02 Aug 07:19:19 07:28:04 89° 287° (WNW) 07:36:48
Cubesat XI-IV 02 Aug 07:21:46 07:26:24 31° 96° (E) 07:31:06 437.490
STRAND 1 02 Aug 07:23:31 07:28:14 39° 71° (ENE) 07:33:02 437.568
SRMSAT 02 Aug 08:01:19 08:03:46 13° 183° (S) 08:06:12 437.500
CUBESAT XI-V 02 Aug 08:07:07 08:10:50 23° 267° (W) 08:14:27 437.345
RS-15 02 Aug 08:11:16 08:23:06 75° 243° (WSW) 08:35:15 29.354- 29.394
Cosmos 2499 02 Aug 08:16:16 08:23:14 49° 90° (E) 08:30:50 435.465 / 435.565
CUTE-I 02 Aug 08:16:53 08:22:13 80° 286° (WNW) 08:27:31 437.470
PCSat 02 Aug 08:25:11 08:26:27 11° 104° (ESE) 08:28:05 145.827
BEESAT 3 02 Aug 08:33:05 08:36:24 24° 50° (NE) 08:39:44 437.485
PRISM 02 Aug 08:43:17 08:47:04 32° 263° (W) 08:50:50 437.425
Cubesat XI-IV 02 Aug 09:01:49 09:06:29 31° 291° (WNW) 09:11:03 437.490
STRAND 1 02 Aug 09:03:33 09:07:36 22° 267° (W) 09:11:32 437.568
GONETS M04 02 Aug 09:20:51 09:26:22 17° 298° (WNW) 09:31:22
DOVE 4 02 Aug 09:20:56 09:24:39 23° 94° (E) 09:28:38 437.250
SEEDS 02 Aug 09:21:08 09:22:46 12° 89° (E) 09:24:39 437.485
HO-68 02 Aug 09:22:19 09:28:07 27° 94° (E) 09:34:07 435.675
CINEMA 3 02 Aug 09:24:26 09:25:17 11° 88° (E) 09:26:30 145.822/145.860
CUTE 1.7 + AOD 2 02 Aug 09:24:52 09:27:43 18° 92° (E) 09:30:42 437.475
SO-50 02 Aug 09:25:10 09:29:21 33° 113° (ESE) 09:33:43 436.795
BEESAT 2 02 Aug 09:32:12 09:36:17 79° 59° (ENE) 09:40:17 435.950
BRITE-PL 02 Aug 09:32:29 09:36:56 87° 105° (ESE) 09:41:44 437.365/2234.400
CANX-2 02 Aug 09:32:56 09:36:26 25° 94° (E) 09:40:00 2200.000
M-CUBED/EXP-1 PRIME 02 Aug 09:33:11 09:36:31 25° 64° (ENE) 09:40:11 437.505
AIST 2 02 Aug 09:35:34 09:38:42 20° 48° (NE) 09:41:51 435.215
GOMX 1 02 Aug 09:37:24 09:41:55 57° 101° (E) 09:46:46 467.674
AAUSAT CUBESAT 2 02 Aug 09:43:59 09:46:18 15° 91° (E) 09:48:49 437.432
AUBIESAT-1 02 Aug 10:00:47 10:04:38 44° 68° (ENE) 10:08:50 437.475
PCSat 02 Aug 10:03:49 10:09:14 84° 296° (WNW) 10:14:42 145.827
Cosmos 2499 02 Aug 10:10:23 10:16:48 29° 291° (WNW) 10:23:27 435.465 / 435.565
BEESAT 3 02 Aug 10:10:51 10:14:19 27° 247° (WSW) 10:17:41 437.485
RS-15 02 Aug 10:27:28 10:34:05 15° 260° (W) 10:39:39 29.354- 29.394
ZACube-1 02 Aug 10:37:21 10:40:23 18° 92° (E) 10:43:36 437.345
COMPASS 1 02 Aug 10:37:35 10:41:50 80° 101° (ESE) 10:46:02 437.405
SEEDS 02 Aug 10:54:47 10:58:55 49° 286° (WNW) 11:03:00 437.485
YUBILEINY 02 Aug 10:55:27 11:00:52 18° 62° (ENE) 11:06:48 435.215
UNISAT 6 02 Aug 10:55:34 10:59:28 34° 71° (ENE) 11:03:31 437.425
POPSAT HIP 1 02 Aug 10:55:41 10:57:13 12° 66° (ENE) 10:58:59 437.405
DELFI C3 02 Aug 10:55:46 10:59:16 28° 96° (E) 11:02:47 145.870
FUNcube-1 02 Aug 10:57:46 11:01:43 29° 95° (E) 11:05:45 145.935
CINEMA 3 02 Aug 10:58:15 11:02:59 73° 283° (WNW) 11:07:53 145.822/145.860
DOVE 4 02 Aug 10:58:15 11:02:27 33° 287° (WNW) 11:06:47 437.250
CUTE 1.7 + AOD 2 02 Aug 10:59:50 11:03:46 35° 288° (WNW) 11:07:38 437.475
QB50P2 02 Aug 11:02:45 11:05:09 15° 67° (ENE) 11:07:42 145.880/145.840
UWE-3 02 Aug 11:02:56 11:07:23 45° 98° (E) 11:11:52 435.000/436.395/437.385
SO-50 02 Aug 11:05:43 11:09:54 29° 311° (NW) 11:14:10 436.795
M-CUBED/EXP-1 PRIME 02 Aug 11:07:52 11:11:15 25° 262° (W) 11:14:50 437.505
Oscar 11 02 Aug 11:08:13 11:12:33 63° 100° (E) 11:16:52 145.826/435.025
CANX-2 02 Aug 11:08:43 11:12:19 25° 289° (WNW) 11:15:48 2200.000
HO-68 02 Aug 11:09:15 11:16:13 54° 291° (WNW) 11:23:07 435.675
AIST 2 02 Aug 11:13:32 11:17:24 37° 245° (WSW) 11:21:11 435.215
O/OREOS (USA 219) 02 Aug 11:13:55 11:16:49 17° 56° (NE) 11:19:54 437.305
HUMSAT D 02 Aug 11:14:02 11:16:52 17° 92° (E) 11:19:50 437.325/437.525
GOMX 1 02 Aug 11:17:18 11:19:45 14° 292° (WNW) 11:22:02 467.674
AAUSAT CUBESAT 2 02 Aug 11:18:11 11:22:08 39° 287° (WNW) 11:26:01 437.432
CUBEBUG 2 02 Aug 11:20:56 11:25:37 88° 282° (WNW) 11:30:22 437.445
DUCHIFAT 1 02 Aug 11:24:45 11:28:08 25° 70° (ENE) 11:31:36 145.980
QB50P1 02 Aug 11:28:47 11:32:23 29° 71° (ENE) 11:36:03 145.935-145.965
NANOSAT C BR1 02 Aug 11:29:29 11:33:04 29° 71° (ENE) 11:36:44 145.865
Cosmos 2491 02 Aug 11:31:03 11:34:38 14° 79° (E) 11:38:53 435.465 / 435.565
AUBIESAT-1 02 Aug 11:37:20 11:39:42 14° 266° (W) 11:41:59 437.475
TIGRISAT 02 Aug 11:37:53 11:42:12 82° 258° (WSW) 11:46:40 435.000
ANTELSAT 02 Aug 11:40:14 11:44:34 74° 258° (WSW) 11:49:02 437.575/2403.000
DX 1 02 Aug 11:40:26 11:43:47 22° 95° (E) 11:47:12 434.975-435.025
PCSat 02 Aug 11:50:51 11:53:35 13° 318° (NW) 11:56:06 145.827
VELOX 1 02 Aug 11:59:39 12:02:57 21° 94° (E) 12:06:22 145.980
POLYITAN 1 02 Aug 12:11:55 12:16:06 84° 257° (WSW) 12:20:21 437.675
ZACube-1 02 Aug 12:12:38 12:16:55 40° 287° (WNW) 12:21:11 437.345
50 SAT 02 Aug 12:15:21 12:19:05 38° 98° (E) 12:22:48 437.505
ESTCUBE 1 02 Aug 12:16:18 12:19:50 23° 94° (E) 12:23:27 437.505/2401.250
AIST 1 02 Aug 12:18:16 12:21:50 26° 90° (E) 12:25:28
BUGSAT 1 02 Aug 12:25:41 12:29:44 83° 74° (ENE) 12:33:46 437.445
POPSAT HIP 1 02 Aug 12:28:35 12:32:41 53° 260° (W) 12:36:48 437.405
DELFI C3 02 Aug 12:31:09 12:34:11 20° 290° (WNW) 12:37:05 145.870
UNISAT 6 02 Aug 12:33:12 12:36:23 19° 268° (W) 12:39:30 437.425
FUNcube-1 02 Aug 12:34:11 12:37:56 25° 290° (WNW) 12:41:36 145.935
QB50P2 02 Aug 12:36:44 12:40:44 41° 262° (W) 12:44:43 145.880/145.840
UWE-3 02 Aug 12:40:31 12:43:34 17° 292° (WNW) 12:46:30 435.000/436.395/437.385
UKube-1 02 Aug 12:45:37 12:49:56 71° 284° (WNW) 12:54:12 .
Oscar 11 02 Aug 12:46:48 12:48:15 11° 295° (WNW) 12:49:27 145.826/435.025
HUMSAT D 02 Aug 12:48:45 12:52:45 37° 287° (WNW) 12:56:43 437.325/437.525
YUBILEINY 02 Aug 12:50:13 12:59:06 87° 264° (W) 13:07:57 435.215
O/OREOS (USA 219) 02 Aug 12:52:09 12:56:34 47° 253° (WSW) 13:00:57 437.305
AISAT 02 Aug 12:56:36 13:01:02 82° 284° (WNW) 13:05:27 437.250
DUCHIFAT 1 02 Aug 13:00:28 13:03:53 24° 265° (W) 13:07:15 145.980
QB50P1 02 Aug 13:05:04 13:08:16 20° 266° (W) 13:11:24 145.935-145.965
NANOSAT C BR1 02 Aug 13:05:44 13:08:56 20° 266° (W) 13:12:03 145.865
CUBEBUG 1 02 Aug 13:06:35 13:10:54 72° 101° (ESE) 13:15:14 437.445
DX 1 02 Aug 13:16:16 13:20:03 29° 289° (WNW) 13:23:45 434.975-435.025
Oscar 19 02 Aug 13:17:04 13:20:36 20° 66° (ENE) 13:24:18 437.125/150
Cosmos 2491 02 Aug 13:21:34 13:30:20 82° 96° (E) 13:39:07 435.465 / 435.565
Cosmos 2504 02 Aug 13:31:56 13:38:08 23° 67° (ENE) 13:44:47 435.465 / 435.565
VELOX 1 02 Aug 13:35:39 13:39:34 31° 289° (WNW) 13:43:25 145.980
SPROUT 02 Aug 13:37:24 13:41:31 44° 99° (E) 13:45:40 437.525
TISAT 1 02 Aug 13:43:59 13:47:44 31° 97° (E) 13:51:31 437.305
50 SAT 02 Aug 13:51:01 13:53:21 15° 292° (WNW) 13:55:31 437.505
ESTCUBE 1 02 Aug 13:52:48 13:56:44 29° 289° (WNW) 14:00:34 437.505/2401.250
AIST 1 02 Aug 13:55:59 13:59:28 23° 286° (WNW) 14:02:52
Gurwin Techsat 1B 02 Aug 14:26:25 14:30:47 28° 68° (ENE) 14:35:17 435.225
ITAMSAT 1 02 Aug 14:40:01 14:44:35 32° 69° (ENE) 14:49:14 435.822/435.867
YUBILEINY 02 Aug 14:49:54 14:54:50 15° 280° (W) 14:59:08 435.215
Oscar 19 02 Aug 14:54:43 14:59:38 47° 261° (W) 15:04:35 437.125/150
BEESAT 02 Aug 14:59:17 15:03:35 33° 97° (E) 15:07:55 436.000
SPROUT 02 Aug 15:14:45 15:17:16 15° 293° (WNW) 15:19:38 437.525
JAS-2 02 Aug 15:16:32 15:21:52 33° 65° (ENE) 15:27:54 435.910
SWISSCUBE 02 Aug 15:19:47 15:24:31 62° 101° (E) 15:29:13 437.505
TISAT 1 02 Aug 15:20:11 15:23:19 20° 291° (WNW) 15:26:21 437.305
Cosmos 2491 02 Aug 15:22:16 15:28:26 20° 297° (WNW) 15:34:09 435.465 / 435.565
Cosmos 2504 02 Aug 15:22:46 15:31:13 74° 266° (W) 15:39:47 435.465 / 435.565
DANDE 02 Aug 15:23:13 15:25:36 15° 76° (ENE) 15:28:35 436.750
KKS-1 02 Aug 15:30:58 15:31:18 10° 89° (E) 15:31:58 437.445
CUSAT 1 02 Aug 15:31:37 15:35:38 33° 79° (ENE) 15:40:53 437.405
HORYU 2 02 Aug 15:33:18 15:35:00 12° 65° (ENE) 15:36:56 437.375
ITUPSAT 1 02 Aug 15:41:27 15:46:16 87° 288° (WNW) 15:51:02 437.325
AO-7 02 Aug 16:02:14 16:10:05 48° 65° (ENE) 16:18:02 29.400- 29.500
Gurwin Techsat 1B 02 Aug 16:05:50 16:10:39 35° 264° (W) 16:15:28 435.225
ITAMSAT 1 02 Aug 16:19:37 16:24:07 28° 265° (W) 16:28:31 435.822/435.867
STARS 02 Aug 16:33:38 16:37:36 32° 97° (E) 16:41:36 437.465
BEESAT 02 Aug 16:37:28 16:41:17 23° 292° (WNW) 16:44:58 436.000
SWISSCUBE 02 Aug 16:59:28 17:01:54 14° 296° (WNW) 17:04:07 437.505
JAS-2 02 Aug 17:01:09 17:06:48 39° 266° (W) 17:13:07 435.910
KKS-1 02 Aug 17:04:00 17:08:26 65° 286° (WNW) 17:12:52 437.445
DANDE 02 Aug 17:04:46 17:08:37 40° 262° (W) 17:13:39 436.750
HORYU 2 02 Aug 17:06:47 17:11:10 61° 259° (W) 17:15:36 437.375
CUSAT 1 02 Aug 17:14:25 17:18:09 23° 264° (W) 17:22:33 437.405
Cosmos 2504 02 Aug 17:18:54 17:22:16 12° 281° (WNW) 17:24:55 435.465 / 435.565
GONETS M04 02 Aug 17:32:01 17:40:05 42° 74° (ENE) 17:48:18
VERMONT LUNAR 02 Aug 17:46:40 17:49:07 21° 149° (SSE) 17:51:38 437.305
AO-7 02 Aug 17:55:27 18:03:04 37° 263° (W) 18:10:33 29.400- 29.500
SO-50 02 Aug 17:58:23 18:02:12 22° 46° (NE) 18:06:04 436.795
CUTE-I 02 Aug 17:59:21 18:02:41 18° 65° (ENE) 18:06:14 437.470
MOZHAYETS 4 02 Aug 18:05:44 18:10:21 68° 101° (ESE) 18:14:55
Cosmos 2499 02 Aug 18:09:59 18:15:15 18° 62° (ENE) 18:21:04 435.465 / 435.565
STARS 02 Aug 18:10:29 18:13:52 21° 291° (WNW) 18:17:08 437.465
Cubesat XI-IV 02 Aug 18:41:55 18:46:56 43° 71° (ENE) 18:52:02 437.490
PCSat 02 Aug 18:53:32 18:58:50 53° 58° (ENE) 19:04:08 145.827
VERMONT LUNAR 02 Aug 19:22:26 19:25:37 87° 338° (NNW) 19:28:49 437.305
GONETS M04 02 Aug 19:28:59 19:36:56 40° 272° (W) 19:44:44
CUTE-I 02 Aug 19:37:04 19:42:21 58° 259° (W) 19:47:39 437.470
STRAND 1 02 Aug 19:37:10 19:39:52 15° 90° (E) 19:42:50 437.568
SO-50 02 Aug 19:38:17 19:43:03 48° 244° (WSW) 19:47:40 436.795
MOZHAYETS 4 02 Aug 19:45:21 19:47:03 12° 295° (WNW) 19:48:29
HO-68 02 Aug 19:50:57 19:55:15 18° 58° (ENE) 19:59:52 435.675
Cosmos 2499 02 Aug 20:00:58 20:09:50 87° 85° (E) 20:18:43 435.465 / 435.565
PHONESAT 2.4 02 Aug 20:02:57 20:06:08 34° 152° (SSE) 20:09:22 2401.200-2431.200
CUBESAT XI-V 02 Aug 20:04:18 20:08:55 79° 284° (WNW) 20:13:30 437.345
CUTE 1.7 + AOD 2 02 Aug 20:17:59 20:19:04 11° 66° (ENE) 20:20:23 437.475
Cubesat XI-IV 02 Aug 20:23:06 20:27:16 22° 267° (W) 20:31:17 437.490
CANX-2 02 Aug 20:25:13 20:27:37 15° 67° (ENE) 20:30:12 2200.000
RS-15 02 Aug 20:25:19 20:31:45 19° 102° (ESE) 20:39:02 29.354- 29.394
DOVE 4 02 Aug 20:26:22 20:28:57 17° 68° (ENE) 20:31:41 437.250
PRISM 02 Aug 20:26:56 20:30:44 36° 98° (E) 20:34:32 437.425
PCSat 02 Aug 20:38:02 20:41:54 19° 253° (WSW) 20:45:32 145.827
BRITE-PL 02 Aug 20:42:08 20:46:32 82° 77° (ENE) 20:50:45 437.365/2234.400
GOMX 1 02 Aug 20:44:35 20:48:38 46° 74° (ENE) 20:52:38 467.674
VERMONT LUNAR 02 Aug 20:59:23 21:02:29 50° 0° (N) 21:05:36 437.305
ISS 02 Aug 21:14:27 21:17:40 68° 138° (SE) 21:20:54 145.825
STRAND 1 02 Aug 21:14:31 21:19:32 58° 287° (WNW) 21:24:30 437.568
COMPASS 1 02 Aug 21:26:51 21:30:49 41° 73° (ENE) 21:34:50 437.405
ZACube-1 02 Aug 21:33:48 21:34:52 11° 65° (ENE) 21:36:10 437.345
